Regional Weather Roundup
Issued by NWS

Home | Current Version | Previous Version | Graphics & Text | Print | Product List | Glossary On
Versions: 1 2 3 4 5 6 7 8 9 10 11 12 13 14 15 16 17 18 19 20 21 22 23 24 25 26 27 28 29 30 31 32 33 34 35 36 37 38 39 40 41 42 43 44 45 46 47 48 49 50
000
ASUS43 KBIS 251210
RWRND

NORTH DAKOTA REGIONAL WEATHER ROUNDUP
NATIONAL WEATHER SERVICE BISMARCK ND
700 AM CDT FRI MAY 25 2018

NOTE: "FAIR" INDICATES FEW OR NO CLOUDS BELOW 12,000 FEET WITH NO
SIGNIFICANT WEATHER AND/OR OBSTRUCTIONS TO VISIBILITY.


NDZ001>003-009>011-017-251300-
NORTHWEST NORTH DAKOTA

CITY           SKY/WX    TMP DP  RH WIND       PRES   REMARKS
WILLISTON      PTCLDY    60  55  83 SW8       29.74S
6HR MIN TEMP:  57; 6HR MAX TEMP:  64;

MINOT          CLEAR     65  54  67 SW13      29.70R
$$

NDZ018>021-031>035-040>046-251300-
SOUTHWEST NORTH DAKOTA

CITY           SKY/WX    TMP DP  RH WIND       PRES   REMARKS
BISMARCK       CLEAR     62  55  77 SW3       29.78S
6HR MIN TEMP:  59; 6HR MAX TEMP:  65;

DICKINSON      CLEAR     60  52  74 W12       29.81R
GARRISON         N/A     58  53  84 W6        29.74S
6HR MIN TEMP:  56; 6HR MAX TEMP:  62;

HETTINGER ARPT CLEAR     54  49  83 W3        29.87S
$$

NDZ004>008-012>016-024-026-027-054-251300-
NORTHEAST NORTH DAKOTA

CITY           SKY/WX    TMP DP  RH WIND       PRES   REMARKS
GRAND FORKS    FAIR      65  56  72 SW6       29.67R
GRND FRKS AFB  FAIR      65  56  74 SW6       29.68R
DEVILS LAKE    FAIR      62  57  83 W9        29.71S
$$

NDZ022-023-025-028>030-036>039-047>053-251300-
SOUTHEAST NORTH DAKOTA

CITY           SKY/WX    TMP DP  RH WIND       PRES   REMARKS
FARGO          FAIR      64  58  80 S6        29.72R
6HR MIN TEMP:  60; 6HR MAX TEMP:  70;

JAMESTOWN      SUNNY     64  57  78 W8        29.74S
$$




USA.gov is the U.S. government's official web portal to all federal, state and local government web resources and services.